User: anonymous   Login
Location: Unspecified
(0.0000°N, 0.0000°E)
Time: 00:04:59
(UTC+00:00)
Language:

STARLINK-33891 - Orbit

View from above orbital plane
View from above orbital plane
View from above satellite
View from above satellite

Ground track
Ground track

The orbit is defined by the following mean orbital elements,

1 63827U          26145.34542411 +.00000000 +00000-0 +31481-3 0 00001
2 63827  43.0011 100.0151 0001352 271.1273  88.9424 15.27584813    08
Epoch (UTC): 25 May 2026 08:17:24
Eccentricity: 0.0001352
inclination: 43.0011°
perigee height: 482 km
apogee height: 484 km
right ascension of ascending node: 100.0151°
argument of perigee: 271.1273°
revolutions per day: 15.27584813
mean anomaly at epoch: 88.9424°

The dashed part of the orbit path shows where the satellite is in the earth's shadow,  

DLR